McMurdo%20Station (Antarctica)  www.meteorete.it

situazione meteo Attuale :22:19:44
Temperatura : -6.6
Umidita :83.9 %
Pressione :996.9 hPa
Vel vento :2.2 Km
Direz. :SE
Precip.(mm.):0.0
   

Condizioni Meteo per: McMurdo Station, Antarctica

aggiornamento precedente: 14.12.2017 07:35
prossimo aggiornamento: 14.12.2017 20:00
Latitude: 77.85° S
Longitude: 166.68° E
Altitude: -6 m

hPa
mm °C
    Temperatura Precipitazioni Pressione vento Umidità Nuvoloso Nebbia
       DOMANI
00:00   996.9 hPa 2.2 m/s 84% 98%
02:00   996.9 hPa 1.5 m/s 82% 92%
04:00   996.9 hPa 0.8 m/s 75% 82%
06:00   997.2 hPa 1.1 m/s 79% 87%
08:00   997.1 hPa 1.2 m/s 81% 88%
10:00   997.2 hPa 0.9 m/s 81% 84%
12:00   997.2 hPa 0.2 m/s 79% 74%
14:00   997.0 hPa 0.7 m/s 78% 81%
16:00   996.9 hPa 1.0 m/s 74% 81%
18:00   996.8 hPa 2.2 m/s 76% 66%
20:00   997.1 hPa 3.4 m/s 81% 17%
22:00   997.1 hPa 4.0 m/s 86% 3%
       Sabato 16.12.2017
00:00   997.3 hPa 3.3 m/s 89% 13%
02:00   997.6 hPa 2.7 m/s 91% 9%
04:00   997.7 hPa 1.9 m/s 87% 2%
06:00   997.7 hPa 0.6 m/s 88% 2%
08:00   997.9 hPa 0.6 m/s 86% 2%
10:00   998.0 hPa 1.3 m/s 85% 2%
12:00   998.0 hPa 0.7 m/s 79% 6%
14:00   997.8 hPa 0.4 m/s 77% 13%
16:00   997.1 hPa 0.7 m/s 78% 4%
18:00   996.4 hPa 0.9 m/s 79% 1%
20:00   995.8 hPa 1.2 m/s 78% 0%
22:00   995.1 hPa 0.7 m/s 76% 1%
       Domenica 17.12.2017
00:00   994.3 hPa 0.4 m/s 78% 2%
02:00   993.5 hPa 1.2 m/s 82% 2%
04:00   992.2 hPa 1.2 m/s 83% 2%
06:00   991.3 hPa 1.9 m/s 78% 3%
08:00   990.5 hPa 2.2 m/s 75% 4%
10:00   989.8 hPa 1.8 m/s 76% 3%
12:00   988.9 hPa 1.8 m/s 76% 2%
14:00   988.0 hPa 2.5 m/s 79% 2%
16:00   987.1 hPa 2.5 m/s 80% 5%
18:00   986.5 hPa 2.7 m/s 83% 12%
       Lunedi 18.12.2017
01:00   985.6 hPa 2.2 m/s 76% 10%
07:00   985.8 hPa 2.4 m/s 82% 59%
13:00   986.4 hPa 2.4 m/s 71% 98%
19:00   986.9 hPa 4.0 m/s 75% 100%
       Martedi 19.12.2017
01:00   987.6 hPa 3.7 m/s 78% 99%
07:00   988.2 hPa 3.6 m/s 81% 94%
13:00   989.2 hPa 3.8 m/s 77% 83%
19:00   989.3 hPa 3.5 m/s 80% 84%
       Mercoledi 20.12.2017
01:00   990.0 hPa 3.5 m/s 82% 57%
07:00   991.0 hPa 3.0 m/s 80% 51%
13:00   992.4 hPa 3.2 m/s 72% 88%
19:00   992.8 hPa 1.9 m/s 77% 21%
       Giovedi 21.12.2017
01:00   992.8 hPa 3.6 m/s 79% 0%
07:00   992.3 hPa 3.2 m/s 80% 28%
13:00   991.9 hPa 2.9 m/s 80% 28%
19:00   991.1 hPa 2.9 m/s 76% 34%
       Venerdi 22.12.2017
01:00   990.6 hPa 2.2 m/s 75% 43%
07:00   990.4 hPa 2.2 m/s 78% 48%
13:00   990.9 hPa 2.5 m/s 77% 13%
19:00   991.3 hPa 2.8 m/s 73% 0%
       Sabato 23.12.2017
01:00   991.7 hPa 2.4 m/s 59% 0%
07:00   991.9 hPa 1.2 m/s 41% 0%
13:00   991.8 hPa 1.5 m/s 56% 0%
19:00   990.6 hPa 1.0 m/s 41% 13%
       Domenica 24.12.2017
01:00   989.1 hPa 3.3 m/s 51% 56%
07:00   988.4 hPa 3.1 m/s 52% 79%
13:00   988.6 hPa 3.3 m/s 61% 86%